Regional Weather Roundup
Issued by NWS

Home | Current Version | Previous Version | Text Only | Print | Product List | Glossary Off
Versions: 1 2 3 4 5 6 7 8 9 10 11 12 13 14 15 16 17 18 19 20 21 22 23 24 25 26 27 28 29 30 31 32 33 34 35 36 37 38 39 40 41 42 43 44 45 46 47 48 49 50

000
ASUS45 KBOI 060910
RWRID
WEATHER ROUNDUP FOR IDAHO
NATIONAL WEATHER SERVICE BOISE ID
200 AM MST FRI MAR 06 2015

NOTE: "FAIR" INDICATES FEW OR NO CLOUDS BELOW 12000 FEET
WITH NO SIGNIFICANT WEATHER AND/OR OBSTRUCTIONS TO VISIBILITY

IDZ012-014-061000-
SOUTHWEST IDAHO


CITY           SKY/WX    TMP DP  RH WIND       PRES   REMARKS
BOISE          CLEAR     38  19  46 SE7       30.39R WCI  33
CALDWELL       CLEAR     28  16  59 CALM      30.41S
MOUNTAIN HOME  CLEAR     26  15  63 CALM      30.38R
$$

IDZ016-017-061000-
SOUTHCENTRAL IDAHO


CITY           SKY/WX    TMP DP  RH WIND       PRES   REMARKS
BURLEY         CLEAR     32  15  49 S6        30.35F WCI  26
JEROME         CLEAR     35  18  49 S5        30.37S WCI  31
TWIN FALLS     CLEAR     40  17  39 SW9       30.37R WCI  34
$$

IDZ019>023-061000-
SOUTHEAST IDAHO


CITY           SKY/WX    TMP DP  RH WIND       PRES   REMARKS
IDAHO FALLS    CLEAR     29  19  66 SW5       30.38R WCI  24
POCATELLO      CLEAR     34  18  52 N7        30.38R WCI  28
REXBURG        CLEAR     23  18  81 E7        30.38R WCI  15
$$

IDZ006-010-011-018-031-032-061000-
CENTRAL IDAHO MOUNTAINS


CITY           SKY/WX    TMP DP  RH WIND       PRES   REMARKS
MCCALL         PTCLDY    25  18  74 CALM      30.38R
HAILEY         CLEAR     30  18  59 NW12      30.37S WCI  21
STANLEY          N/A     15   6  67 CALM      30.42R
SALMON         PTCLDY    25  16  68 SE3       30.38R
CHALLIS        PTCLDY    26  13  57 CALM      30.36R
$$

IDZ002-004-006-007-026-061000-
NORTHERN IDAHO


CITY           SKY/WX    TMP DP  RH WIND       PRES   REMARKS
LEWISTON       CLEAR     37  25  61 E5        30.38R WCI  33
LOWELL           N/A     29  24  82 CALM      30.47R
COEUR D`ALENE  PTCLDY    30  25  80 CALM      30.34S
MULLAN PASS    CLEAR     28  14  55 VRB3      30.29R
$$



USA.gov is the U.S. government's official web portal to all federal, state and local government web resources and services.